Location: Brede
(50.9167°N, 0.6000°E)
Time: 17:50:24
(UTC+00:00)

Cosmos 990 Rocket - Pass Details

Date: 08 August 2020
Orbit: 747 x 768 km, 74.0° (Epoch: 23 September)

Event Time Altitude Azimuth Distance (km) Brightness Sun altitude
Exits shadow 03:24:27 13° 227° (SW) 2,082 5.6 -10.0°
Maximum altitude 03:28:56 50° 301° (WNW) 967 4.4 -9.4°
Drops below altitude 10° 03:33:58 10° 17° (NNE) 2,287 7.4 -8.8°
Sets 03:36:24 0° 22° (NNE) 3,213 8.4 -8.5°
